DAL2600 KATL-KRDU

Flight info

Callsign DAL2600
Flight time 1h 0m
Altitude 29000
Route GAIRY2 IRQ PYRES DMSTR2
Aircraft B739/M-SDE2E3FGHIRWXY/LB1

Departure

Time 2026-05-06 22:21
Airport Hartsfield Jackson Atlanta International Airport (KATL)

Arrival

Time 2026-05-06 23:21
Airport Raleigh-Durham International Airport (KRDU)
Time Latitude Longitude Altitude Speed Heading
2026-05-06 22:07 33.63755 -84.43219 1005 ft 0 kts 322°
2026-05-06 22:12 33.63748 -84.43211 1005 ft 2 kts 308°
2026-05-06 22:13 33.63741 -84.43195 1004 ft 2 kts 286°
2026-05-06 22:13 33.63739 -84.43177 1004 ft 2 kts 265°
2026-05-06 22:13 33.63743 -84.43160 1004 ft 2 kts 245°
2026-05-06 22:13 33.63751 -84.43144 1004 ft 2 kts 224°
2026-05-06 22:14 33.63763 -84.43134 1004 ft 2 kts 204°
2026-05-06 22:14 33.63778 -84.43130 1005 ft 2 kts 183°
2026-05-06 22:14 33.63784 -84.43130 1005 ft 0 kts 178°
2026-05-06 22:15 33.63783 -84.43130 1005 ft 0 kts 178°
2026-05-06 22:15 33.63773 -84.43130 1005 ft 3 kts 180°
2026-05-06 22:15 33.63734 -84.43130 1005 ft 7 kts 180°
2026-05-06 22:16 33.63674 -84.43100 1005 ft 11 kts 127°
2026-05-06 22:16 33.63663 -84.42992 1005 ft 15 kts 90°
2026-05-06 22:16 33.63663 -84.42848 1005 ft 19 kts 90°
2026-05-06 22:16 33.63654 -84.42684 1005 ft 18 kts 90°
2026-05-06 22:17 33.63655 -84.42534 1004 ft 17 kts 90°
2026-05-06 22:17 33.63655 -84.42391 1004 ft 16 kts 90°
2026-05-06 22:17 33.63655 -84.42254 1000 ft 17 kts 90°
2026-05-06 22:17 33.63655 -84.42110 999 ft 16 kts 90°
2026-05-06 22:18 33.63655 -84.41977 999 ft 15 kts 90°
2026-05-06 22:18 33.63655 -84.41849 999 ft 15 kts 90°
2026-05-06 22:18 33.63655 -84.41727 999 ft 14 kts 90°
2026-05-06 22:18 33.63655 -84.41589 997 ft 19 kts 90°
2026-05-06 22:19 33.63655 -84.41408 994 ft 22 kts 90°
2026-05-06 22:19 33.63655 -84.41216 990 ft 23 kts 90°
2026-05-06 22:19 33.63655 -84.41024 987 ft 23 kts 90°
2026-05-06 22:19 33.63586 -84.40904 986 ft 19 kts 186°
2026-05-06 22:20 33.63475 -84.40949 986 ft 16 kts 253°
2026-05-06 22:20 33.63469 -84.41270 991 ft 72 kts 271°
2026-05-06 22:20 33.63471 -84.42107 1000 ft 133 kts 269°
2026-05-06 22:20 33.63474 -84.43147 1077 ft 168 kts 269°
2026-05-06 22:21 33.63502 -84.44501 1749 ft 169 kts 263°
2026-05-06 22:21 33.63456 -84.45945 2400 ft 179 kts 263°
2026-05-06 22:21 33.63383 -84.47462 3009 ft 184 kts 257°
2026-05-06 22:21 33.62913 -84.48878 3456 ft 196 kts 239°
2026-05-06 22:22 33.62206 -84.50346 3980 ft 210 kts 240°
2026-05-06 22:22 33.61494 -84.51962 4473 ft 228 kts 243°
2026-05-06 22:22 33.60770 -84.53722 5054 ft 242 kts 244°
2026-05-06 22:22 33.60016 -84.55527 5682 ft 252 kts 241°
2026-05-06 22:23 33.58955 -84.57208 6437 ft 258 kts 223°
2026-05-06 22:23 33.57376 -84.58200 7302 ft 264 kts 200°
2026-05-06 22:23 33.55551 -84.58485 8037 ft 274 kts 188°
2026-05-06 22:23 33.53664 -84.58494 8798 ft 278 kts 186°
2026-05-06 22:24 33.51725 -84.58421 9558 ft 284 kts 181°
2026-05-06 22:24 33.49759 -84.57865 10248 ft 300 kts 163°
2026-05-06 22:24 33.47999 -84.56465 10944 ft 317 kts 142°
2026-05-06 22:24 33.46614 -84.54361 11498 ft 335 kts 126°
2026-05-06 22:25 33.45678 -84.51698 11880 ft 359 kts 107°
2026-05-06 22:25 33.45397 -84.48685 12262 ft 378 kts 94°
2026-05-06 22:25 33.45385 -84.45451 12587 ft 396 kts 90°
2026-05-06 22:25 33.45452 -84.42177 12913 ft 412 kts 90°
2026-05-06 22:26 33.45518 -84.38745 13335 ft 424 kts 90°
2026-05-06 22:26 33.45557 -84.35184 13974 ft 429 kts 90°
2026-05-06 22:26 33.45689 -84.31626 14549 ft 437 kts 88°
2026-05-06 22:26 33.45924 -84.27964 15264 ft 441 kts 85°
2026-05-06 22:27 33.46219 -84.24326 15903 ft 447 kts 84°
2026-05-06 22:27 33.46548 -84.20592 16554 ft 452 kts 84°
2026-05-06 22:27 33.46878 -84.16876 17181 ft 456 kts 83°
2026-05-06 22:27 33.47209 -84.13073 17798 ft 462 kts 83°
2026-05-06 22:28 33.47532 -84.09261 18395 ft 467 kts 83°
2026-05-06 22:28 33.47850 -84.05369 19008 ft 470 kts 83°
2026-05-06 22:28 33.48157 -84.01480 19575 ft 475 kts 84°
2026-05-06 22:28 33.48459 -83.97588 20084 ft 481 kts 84°
2026-05-06 22:29 33.48766 -83.93578 20616 ft 486 kts 84°
2026-05-06 22:29 33.49077 -83.89493 21120 ft 491 kts 84°
2026-05-06 22:29 33.49386 -83.85417 21716 ft 494 kts 84°
2026-05-06 22:29 33.49697 -83.81293 22182 ft 499 kts 84°
2026-05-06 22:30 33.50008 -83.77132 22701 ft 503 kts 84°
2026-05-06 22:30 33.50323 -83.72921 23318 ft 504 kts 84°
2026-05-06 22:30 33.50632 -83.68782 23988 ft 503 kts 84°
2026-05-06 22:30 33.50940 -83.64636 24676 ft 501 kts 83°
2026-05-06 22:31 33.51296 -83.60485 25339 ft 499 kts 81°
2026-05-06 22:31 33.51783 -83.56377 25919 ft 498 kts 78°
2026-05-06 22:31 33.52362 -83.52277 26522 ft 497 kts 77°
2026-05-06 22:31 33.52975 -83.48224 27039 ft 497 kts 76°
2026-05-06 22:32 33.53603 -83.44126 27568 ft 498 kts 76°
2026-05-06 22:32 33.54213 -83.40070 28176 ft 495 kts 76°
2026-05-06 22:32 33.54813 -83.35989 28742 ft 494 kts 76°
2026-05-06 22:32 33.55389 -83.31971 28931 ft 490 kts 77°
2026-05-06 22:33 33.56500 -83.24033 28962 ft 483 kts 77°
2026-05-06 22:33 33.57576 -83.16200 28966 ft 482 kts 77°
2026-05-06 22:34 33.58659 -83.08244 28963 ft 481 kts 77°
2026-05-06 22:34 33.59729 -83.00319 28967 ft 481 kts 77°
2026-05-06 22:35 33.60794 -82.92374 28967 ft 481 kts 77°
2026-05-06 22:35 33.61843 -82.84497 28967 ft 479 kts 77°
2026-05-06 22:36 33.62890 -82.76592 28964 ft 478 kts 77°
2026-05-06 22:36 33.63939 -82.68663 28969 ft 478 kts 77°
2026-05-06 22:37 33.64978 -82.60794 28974 ft 479 kts 77°
2026-05-06 22:37 33.66016 -82.52872 28974 ft 478 kts 77°
2026-05-06 22:38 33.67047 -82.44961 28969 ft 475 kts 77°
2026-05-06 22:38 33.68062 -82.37118 28960 ft 475 kts 77°
2026-05-06 22:39 33.69056 -82.29389 28956 ft 475 kts 77°
2026-05-06 22:39 33.70066 -82.21556 28952 ft 474 kts 78°
2026-05-06 22:40 33.71285 -82.13757 28948 ft 469 kts 72°
2026-05-06 22:40 33.73072 -82.06251 28954 ft 468 kts 68°
2026-05-06 22:41 33.76025 -81.94996 28953 ft 468 kts 67°
2026-05-06 22:42 33.77966 -81.87500 28956 ft 468 kts 68°
2026-05-06 22:42 33.79870 -81.80010 28960 ft 470 kts 68°
2026-05-06 22:43 33.81765 -81.72461 28964 ft 466 kts 68°
2026-05-06 22:43 33.83627 -81.65002 28961 ft 468 kts 68°
2026-05-06 22:44 33.85530 -81.57526 28951 ft 464 kts 66°
2026-05-06 22:44 33.88064 -81.50381 28954 ft 459 kts 55°
2026-05-06 22:45 33.91291 -81.43814 28952 ft 455 kts 51°
2026-05-06 22:45 33.94658 -81.37356 28954 ft 453 kts 51°
2026-05-06 22:46 33.97980 -81.30911 28959 ft 456 kts 52°
2026-05-06 22:46 34.01274 -81.24416 28955 ft 454 kts 53°
2026-05-06 22:47 34.04549 -81.17870 28955 ft 456 kts 53°
2026-05-06 22:47 34.07804 -81.11324 28959 ft 452 kts 53°
2026-05-06 22:48 34.11062 -81.04769 28961 ft 455 kts 52°
2026-05-06 22:48 34.13906 -80.99036 28965 ft 460 kts 53°
2026-05-06 22:49 34.17182 -80.92409 28956 ft 458 kts 54°
2026-05-06 22:49 34.20405 -80.85878 28947 ft 454 kts 53°
2026-05-06 22:50 34.23604 -80.79385 28945 ft 455 kts 54°
2026-05-06 22:50 34.26842 -80.72805 28953 ft 452 kts 53°
2026-05-06 22:51 34.30068 -80.66222 28956 ft 452 kts 54°
2026-05-06 22:51 34.33311 -80.59598 28957 ft 456 kts 54°
2026-05-06 22:52 34.36553 -80.52965 28958 ft 453 kts 54°
2026-05-06 22:52 34.39781 -80.46352 28956 ft 455 kts 54°
2026-05-06 22:52 34.41365 -80.43099 28951 ft 444 kts 53°
2026-05-06 22:53 34.42909 -80.39912 28937 ft 430 kts 53°
2026-05-06 22:53 34.44415 -80.36800 28694 ft 422 kts 53°
2026-05-06 22:53 34.45867 -80.33813 28295 ft 419 kts 54°
2026-05-06 22:53 34.47310 -80.30846 27841 ft 417 kts 54°
2026-05-06 22:54 34.48791 -80.27808 27369 ft 416 kts 53°
2026-05-06 22:54 34.50256 -80.24798 26899 ft 414 kts 53°
2026-05-06 22:54 34.51716 -80.21789 26424 ft 413 kts 54°
2026-05-06 22:54 34.53163 -80.18800 25955 ft 411 kts 54°
2026-05-06 22:55 34.54615 -80.15797 25482 ft 410 kts 54°
2026-05-06 22:55 34.56057 -80.12814 25017 ft 408 kts 54°
2026-05-06 22:55 34.57509 -80.09812 24542 ft 406 kts 54°
2026-05-06 22:55 34.58937 -80.06856 24074 ft 405 kts 54°
2026-05-06 22:56 34.60340 -80.03949 23606 ft 403 kts 54°
2026-05-06 22:56 34.61763 -80.00994 23137 ft 402 kts 54°
2026-05-06 22:56 34.63166 -79.98072 22679 ft 400 kts 55°
2026-05-06 22:56 34.64570 -79.95152 22205 ft 398 kts 54°
2026-05-06 22:57 34.65968 -79.92247 21750 ft 396 kts 54°
2026-05-06 22:57 34.67403 -79.89391 21289 ft 393 kts 51°
2026-05-06 22:57 34.69041 -79.86775 20969 ft 379 kts 40°
2026-05-06 22:57 34.70959 -79.84660 20947 ft 357 kts 31°
2026-05-06 22:58 34.72876 -79.82907 20952 ft 341 kts 28°
2026-05-06 22:58 34.74820 -79.81251 20952 ft 339 kts 27°
2026-05-06 22:58 34.76821 -79.79579 20956 ft 353 kts 26°
2026-05-06 22:58 34.78870 -79.77859 20977 ft 362 kts 27°
2026-05-06 22:59 34.80940 -79.76081 20955 ft 359 kts 28°
2026-05-06 22:59 34.82977 -79.74293 20954 ft 362 kts 28°
2026-05-06 22:59 34.85012 -79.72491 20954 ft 362 kts 28°
2026-05-06 22:59 34.87063 -79.70670 20948 ft 362 kts 29°
2026-05-06 23:00 34.89119 -79.68842 20950 ft 360 kts 28°
2026-05-06 23:00 34.91150 -79.67040 20952 ft 364 kts 28°
2026-05-06 23:00 34.93219 -79.65209 20950 ft 363 kts 28°
2026-05-06 23:00 34.95255 -79.63401 20947 ft 361 kts 28°
2026-05-06 23:01 34.97313 -79.61577 20947 ft 363 kts 28°
2026-05-06 23:01 34.99329 -79.59790 20945 ft 361 kts 28°
2026-05-06 23:01 35.01362 -79.57985 20944 ft 360 kts 28°
2026-05-06 23:01 35.03401 -79.56174 20942 ft 362 kts 28°
2026-05-06 23:02 35.05423 -79.54380 20937 ft 362 kts 28°
2026-05-06 23:02 35.07464 -79.52563 20937 ft 363 kts 28°
2026-05-06 23:02 35.09550 -79.50767 20935 ft 359 kts 25°
2026-05-06 23:02 35.11678 -79.49349 20937 ft 349 kts 13°
2026-05-06 23:03 35.13788 -79.48628 20939 ft 338 kts
2026-05-06 23:03 35.16179 -79.48221 20942 ft 337 kts 357°
2026-05-06 23:03 35.18311 -79.47968 20941 ft 335 kts 356°
2026-05-06 23:03 35.20708 -79.47706 20874 ft 337 kts 356°
2026-05-06 23:04 35.23066 -79.47437 20624 ft 340 kts 356°
2026-05-06 23:04 35.25454 -79.47148 20233 ft 341 kts 357°
2026-05-06 23:04 35.27813 -79.46846 19789 ft 341 kts 357°
2026-05-06 23:04 35.30154 -79.46537 19352 ft 340 kts 357°
2026-05-06 23:05 35.32491 -79.46184 18905 ft 342 kts
2026-05-06 23:05 35.34867 -79.45480 18457 ft 366 kts 11°
2026-05-06 23:05 35.37216 -79.44000 17999 ft 383 kts 26°
2026-05-06 23:05 35.39346 -79.42027 17514 ft 381 kts 31°
2026-05-06 23:06 35.41340 -79.39971 17091 ft 376 kts 33°
2026-05-06 23:06 35.43320 -79.37884 16625 ft 375 kts 33°
2026-05-06 23:06 35.45324 -79.35788 16150 ft 373 kts 33°
2026-05-06 23:06 35.47266 -79.33783 15695 ft 371 kts 33°
2026-05-06 23:07 35.49087 -79.31921 15269 ft 369 kts 33°
2026-05-06 23:07 35.51102 -79.29877 14793 ft 367 kts 33°
2026-05-06 23:07 35.53082 -79.27874 14347 ft 367 kts 32°
2026-05-06 23:07 35.55037 -79.25898 13878 ft 365 kts 33°
2026-05-06 23:08 35.56977 -79.23932 13429 ft 363 kts 33°
2026-05-06 23:08 35.58941 -79.21938 12958 ft 362 kts 33°
2026-05-06 23:08 35.60884 -79.19967 12497 ft 360 kts 33°
2026-05-06 23:08 35.62773 -79.18003 12062 ft 359 kts 37°
2026-05-06 23:09 35.64458 -79.15777 11944 ft 351 kts 45°
2026-05-06 23:09 35.65919 -79.13445 11629 ft 348 kts 49°
2026-05-06 23:09 35.67310 -79.11047 11205 ft 347 kts 50°
2026-05-06 23:09 35.68692 -79.08627 10775 ft 347 kts 50°
2026-05-06 23:10 35.70069 -79.06249 10348 ft 346 kts 50°
2026-05-06 23:10 35.71444 -79.03907 9976 ft 342 kts 50°
2026-05-06 23:10 35.72823 -79.01575 9818 ft 331 kts 50°
2026-05-06 23:10 35.74152 -78.99337 9443 ft 325 kts 49°
2026-05-06 23:11 35.75472 -78.97127 9001 ft 321 kts 50°
2026-05-06 23:11 35.76773 -78.94943 8616 ft 316 kts 50°
2026-05-06 23:11 35.78065 -78.92827 8236 ft 309 kts 47°
2026-05-06 23:11 35.79494 -78.91039 7957 ft 294 kts 30°
2026-05-06 23:12 35.81205 -78.90044 7948 ft 264 kts
2026-05-06 23:12 35.82946 -78.89565 7854 ft 267 kts
2026-05-06 23:12 35.84757 -78.89133 7570 ft 276 kts
2026-05-06 23:12 35.86536 -78.88646 7328 ft 273 kts
2026-05-06 23:13 35.88327 -78.88090 7243 ft 260 kts
2026-05-06 23:13 35.90078 -78.87526 7065 ft 254 kts
2026-05-06 23:13 35.91768 -78.86990 6738 ft 254 kts
2026-05-06 23:13 35.93435 -78.86448 6441 ft 253 kts 12°
2026-05-06 23:14 35.95036 -78.85566 6167 ft 258 kts 30°
2026-05-06 23:14 35.96368 -78.84085 5946 ft 257 kts 44°
2026-05-06 23:14 35.97562 -78.82464 5632 ft 257 kts 45°
2026-05-06 23:14 35.98739 -78.80912 5377 ft 254 kts 43°
2026-05-06 23:15 35.99957 -78.79383 5083 ft 254 kts 43°
2026-05-06 23:15 36.01207 -78.77849 4793 ft 253 kts 42°
2026-05-06 23:15 36.02454 -78.76308 4500 ft 253 kts 46°
2026-05-06 23:15 36.03279 -78.74422 4172 ft 252 kts 82°
2026-05-06 23:16 36.03081 -78.72414 3969 ft 234 kts 121°
2026-05-06 23:16 36.02256 -78.70779 3960 ft 214 kts 131°
2026-05-06 23:16 36.01421 -78.69331 3816 ft 208 kts 137°
2026-05-06 23:16 36.00305 -78.68403 3676 ft 184 kts 167°
2026-05-06 23:17 35.99140 -78.67937 3424 ft 181 kts 172°
2026-05-06 23:17 35.97905 -78.67817 3087 ft 175 kts 193°
2026-05-06 23:17 35.96892 -78.68426 2711 ft 164 kts 224°
2026-05-06 23:17 35.96144 -78.69460 2244 ft 163 kts 228°
2026-05-06 23:18 35.95419 -78.70388 2040 ft 148 kts 225°
2026-05-06 23:18 35.94723 -78.71223 1869 ft 131 kts 225°
2026-05-06 23:18 35.94132 -78.71971 1669 ft 119 kts 226°
2026-05-06 23:18 35.93545 -78.72696 1583 ft 122 kts 225°
2026-05-06 23:19 35.92963 -78.73412 1397 ft 126 kts 225°
2026-05-06 23:19 35.92353 -78.74161 1224 ft 127 kts 224°
2026-05-06 23:19 35.91725 -78.74910 1102 ft 132 kts 224°
2026-05-06 23:19 35.91093 -78.75690 950 ft 136 kts 225°
2026-05-06 23:20 35.90435 -78.76511 773 ft 140 kts 226°
2026-05-06 23:20 35.89762 -78.77334 565 ft 139 kts 225°
2026-05-06 23:20 35.89119 -78.78133 401 ft 131 kts 224°
2026-05-06 23:20 35.88608 -78.78760 401 ft 80 kts 227°
2026-05-06 23:21 35.88367 -78.79050 397 ft 26 kts 212°
2026-05-06 23:21 35.88266 -78.79051 399 ft 0 kts 143°
2026-05-06 23:21 35.88252 -78.79044 399 ft 3 kts 168°
2026-05-06 23:21 35.88202 -78.79071 399 ft 13 kts 223°
2026-05-06 23:22 35.88141 -78.79144 397 ft 15 kts 226°
2026-05-06 23:22 35.88050 -78.79257 394 ft 19 kts 225°
2026-05-06 23:22 35.87945 -78.79354 392 ft 16 kts 162°
2026-05-06 23:22 35.87853 -78.79400 391 ft 15 kts 225°
2026-05-06 23:23 35.87797 -78.79459 389 ft 4 kts 170°
2026-05-06 23:23 35.87780 -78.79446 390 ft 2 kts 131°
2026-05-06 23:23 35.87771 -78.79433 390 ft 2 kts 131°
2026-05-06 23:23 35.87760 -78.79419 391 ft 1 kts 134°
2026-05-06 23:24 35.87758 -78.79416 391 ft 0 kts 134°